Location: Six Mile Lake
(44.9000°N, 79.7170°W)
Time: 03:08:02
(UTC-04:00)

LO-87 - Pass Details

Date: 03 July 2022
Orbit: 450 x 466 km, 97.4° (Epoch: 14 August)

Event Time Altitude Azimuth Distance (km) Brightness Sun altitude
Exits shadow 01:07:16 53° 288° (WNW) 578 ? -22.0°
Drops below altitude 10° 01:10:21 10° 339° (NNW) 1,625 ? -22.1°
Sets 01:12:26 0° 344° (NNW) 2,510 ? -22.1°
